Location: Antist
(43.1184°N, 0.1270°E)
Time: 06:04:45
(UTC+00:00)

ERBS - Pass Details

Date: 19 January 2020
Orbit: 412 x 427 km, 57.0° (Epoch: 23 February)

Event Time Altitude Azimuth Distance (km) Brightness Sun altitude
Rises 18:30:52 0° 215° (SW) 2,343 6.8 -17.4°
Reaches altitude 10° 18:32:58 10° 210° (SSW) 1,482 5.6 -17.8°
Maximum altitude 18:36:12 53° 133° (SE) 513 2.4 -18.4°
Enters shadow 18:36:15 53° 129° (SE) 513 2.4 -18.4°
